Time,TemperatureF,DewpointF,PressureIn,WindDirection,WindDirectionDegrees,WindSpeedMPH,WindSpeedGustMPH,Humidity,HourlyPrecipIn,Conditions,Clouds,dailyrainin,SoftwareType,DateUTC
2014-08-27 00:01:00,63.0,52.7,29.67,North,0,0.0,0.0,69,0.00,,,0.00,WUHU216HW,2014-08-27 07:01:00,
2014-08-27 00:06:00,62.8,52.9,29.67,North,0,0.0,0.0,70,0.00,,,0.00,WUHU216HW,2014-08-27 07:06:00,
2014-08-27 00:11:00,62.6,52.7,29.67,North,0,0.0,0.0,70,0.00,,,0.00,WUHU216HW,2014-08-27 07:11:00,
2014-08-27 00:16:00,62.5,52.6,29.67,North,0,0.0,0.0,70,0.00,,,0.00,WUHU216HW,2014-08-27 07:16:00,
2014-08-27 00:21:00,62.5,52.6,29.67,North,0,0.0,0.0,70,0.00,,,0.00,WUHU216HW,2014-08-27 07:21:00,
2014-08-27 00:26:00,62.5,52.6,29.67,North,0,0.0,0.0,70,0.00,,,0.00,WUHU216HW,2014-08-27 07:26:00,
2014-08-27 08:00:00,58.7,54.2,29.73,North,0,0.0,0.0,85,0.00,,,0.00,WUHU216HW,2014-08-27 15:00:00,
2014-08-27 08:05:00,59.2,54.7,29.73,North,0,0.0,0.0,85,0.00,,,0.00,WUHU216HW,2014-08-27 15:05:00,
2014-08-27 08:10:00,59.4,54.5,29.73,North,0,0.0,0.0,84,0.00,,,0.00,WUHU216HW,2014-08-27 15:10:00,
2014-08-27 08:15:00,59.8,54.6,29.73,North,0,0.0,0.0,83,0.00,,,0.00,WUHU216HW,2014-08-27 15:15:00,
2014-08-27 08:20:00,59.9,54.8,29.73,North,0,0.0,0.0,83,0.00,,,0.00,WUHU216HW,2014-08-27 15:20:00,
2014-08-27 08:25:00,59.9,54.8,29.73,North,0,0.0,0.0,83,0.00,,,0.00,WUHU216HW,2014-08-27 15:25:00,
2014-08-27 08:30:00,60.3,54.8,29.73,North,0,0.0,0.0,82,0.00,,,0.00,WUHU216HW,2014-08-27 15:30:00,
2014-08-27 08:35:00,60.5,55.0,29.73,North,0,0.0,0.0,82,0.00,,,0.00,WUHU216HW,2014-08-27 15:35:00,
2014-08-27 08:40:00,60.8,55.1,29.73,North,0,0.0,0.0,81,0.00,,,0.00,WUHU216HW,2014-08-27 15:40:00,
2014-08-27 08:45:00,61.0,55.2,29.73,North,0,0.0,0.0,81,0.00,,,0.00,WUHU216HW,2014-08-27 15:45:00,
2014-08-27 08:50:00,61.4,55.5,29.73,North,0,0.0,0.0,81,0.00,,,0.00,WUHU216HW,2014-08-27 15:50:00,
2014-08-27 08:55:00,61.6,55.7,29.73,North,0,0.0,0.0,81,0.00,,,0.00,WUHU216HW,2014-08-27 15:55:00,
2014-08-27 09:00:00,62.1,55.9,29.73,North,0,0.0,0.0,80,0.00,,,0.00,WUHU216HW,2014-08-27 16:00:00,
2014-08-27 09:05:00,62.5,56.2,29.73,North,0,0.0,0.0,80,0.00,,,0.00,WUHU216HW,2014-08-27 16:05:00,
2014-08-27 09:10:00,62.6,56.3,29.73,North,0,0.0,0.0,80,0.00,,,0.00,WUHU216HW,2014-08-27 16:10:00,
2014-08-27 09:15:00,63.0,56.3,29.73,North,0,0.0,0.0,79,0.00,,,0.00,WUHU216HW,2014-08-27 16:15:00,
2014-08-27 09:20:00,63.4,56.7,29.73,North,0,0.0,0.0,79,0.00,,,0.00,WUHU216HW,2014-08-27 16:20:00,
2014-08-27 09:25:00,63.7,57.4,29.73,North,0,0.0,0.0,80,0.00,,,0.00,WUHU216HW,2014-08-27 16:25:00,
2014-08-27 09:30:00,63.9,57.2,29.73,North,0,0.0,0.0,79,0.00,,,0.00,WUHU216HW,2014-08-27 16:30:00,
2014-08-27 09:35:00,64.3,57.6,29.72,North,0,0.0,0.0,79,0.00,,,0.00,WUHU216HW,2014-08-27 16:35:00,
2014-08-27 09:40:00,64.8,57.8,29.73,North,0,0.0,0.0,78,0.00,,,0.00,WUHU216HW,2014-08-27 16:40:00,
2014-08-27 09:45:00,65.2,58.2,29.73,North,0,0.0,0.0,78,0.00,,,0.00,WUHU216HW,2014-08-27 16:45:00,
2014-08-27 09:50:00,65.7,58.3,29.73,North,0,0.0,0.0,77,0.00,,,0.00,WUHU216HW,2014-08-27 16:50:00,
2014-08-27 09:55:00,66.1,58.2,29.73,North,0,0.0,0.0,76,0.00,,,0.00,WUHU216HW,2014-08-27 16:55:00,
2014-08-27 10:00:00,66.6,58.4,29.73,North,0,0.0,0.0,75,0.00,,,0.00,WUHU216HW,2014-08-27 17:00:00,
2014-08-27 10:05:00,67.0,58.4,29.73,North,0,0.0,0.0,74,0.00,,,0.00,WUHU216HW,2014-08-27 17:05:00,
2014-08-27 10:10:00,67.5,59.0,29.73,North,0,0.0,0.0,74,0.00,,,0.00,WUHU216HW,2014-08-27 17:10:00,
2014-08-27 10:15:00,67.9,59.0,29.73,North,0,0.0,0.0,73,0.00,,,0.00,WUHU216HW,2014-08-27 17:15:00,
2014-08-27 10:20:00,68.2,59.2,29.73,North,0,0.0,0.0,73,0.00,,,0.00,WUHU216HW,2014-08-27 17:20:00,
2014-08-27 10:25:00,68.6,59.6,29.73,North,0,0.0,0.0,73,0.00,,,0.00,WUHU216HW,2014-08-27 17:25:00,
2014-08-27 10:30:00,69.1,59.7,29.73,North,0,0.0,0.0,72,0.00,,,0.00,WUHU216HW,2014-08-27 17:30:00,
2014-08-27 10:35:00,69.8,59.9,29.73,North,0,0.0,0.0,71,0.00,,,0.00,WUHU216HW,2014-08-27 17:35:00,
2014-08-27 10:40:00,70.4,60.1,29.73,North,0,0.0,0.0,70,0.00,,,0.00,WUHU216HW,2014-08-27 17:40:00,
2014-08-27 10:45:00,71.1,60.4,29.73,North,0,0.0,0.0,69,0.00,,,0.00,WUHU216HW,2014-08-27 17:45:00,
2014-08-27 10:50:00,71.6,60.5,29.73,North,0,0.0,0.0,68,0.00,,,0.00,WUHU216HW,2014-08-27 17:50:00,
2014-08-27 10:55:00,72.0,60.8,29.73,North,0,0.0,0.0,68,0.00,,,0.00,WUHU216HW,2014-08-27 17:55:00,
2014-08-27 11:00:00,72.0,60.8,29.72,North,0,0.0,0.0,68,0.00,,,0.00,WUHU216HW,2014-08-27 18:00:00,
2014-08-27 11:05:00,72.4,60.8,29.72,North,0,0.0,0.0,67,0.00,,,0.00,WUHU216HW,2014-08-27 18:05:00,
2014-08-27 11:10:00,73.1,61.0,29.73,North,0,0.0,0.0,66,0.00,,,0.00,WUHU216HW,2014-08-27 18:10:00,
2014-08-27 11:15:00,73.4,61.4,29.72,North,0,0.0,0.0,66,0.00,,,0.00,WUHU216HW,2014-08-27 18:15:00,
2014-08-27 11:20:00,73.8,61.3,29.73,North,0,0.0,0.0,65,0.00,,,0.00,WUHU216HW,2014-08-27 18:20:00,
2014-08-27 11:25:00,73.8,61.3,29.73,North,0,0.0,0.0,65,0.00,,,0.00,WUHU216HW,2014-08-27 18:25:00,
2014-08-27 11:30:00,74.0,61.0,29.72,North,0,0.0,0.0,64,0.00,,,0.00,WUHU216HW,2014-08-27 18:30:00,
2014-08-27 11:35:00,74.2,60.8,29.72,North,0,0.0,0.0,63,0.00,,,0.00,WUHU216HW,2014-08-27 18:35:00,
2014-08-27 11:40:00,74.7,60.9,29.72,North,0,0.0,0.0,62,0.00,,,0.00,WUHU216HW,2014-08-27 18:40:00,
2014-08-27 11:45:00,75.1,61.2,29.72,North,0,0.0,0.0,62,0.00,,,0.00,WUHU216HW,2014-08-27 18:45:00,
2014-08-27 11:50:00,75.6,61.7,29.72,North,0,0.0,0.0,62,0.00,,,0.00,WUHU216HW,2014-08-27 18:50:00,
2014-08-27 11:55:00,76.1,61.8,29.72,North,0,0.0,0.0,61,0.00,,,0.00,WUHU216HW,2014-08-27 18:55:00,
2014-08-27 12:00:00,76.7,60.8,29.72,North,0,0.0,0.0,58,0.00,,,0.00,WUHU216HW,2014-08-27 19:00:00,
2014-08-27 12:05:00,77.2,61.3,29.72,North,0,0.0,0.0,58,0.00,,,0.00,WUHU216HW,2014-08-27 19:05:00,
2014-08-27 12:10:00,77.4,60.9,29.72,North,0,0.0,0.0,57,0.00,,,0.00,WUHU216HW,2014-08-27 19:10:00,
2014-08-27 12:15:00,78.1,61.1,29.72,North,0,0.0,0.0,56,0.00,,,0.00,WUHU216HW,2014-08-27 19:15:00,
2014-08-27 12:20:00,78.1,61.1,29.71,North,0,0.0,0.0,56,0.00,,,0.00,WUHU216HW,2014-08-27 19:20:00,
2014-08-27 12:25:00,78.3,61.8,29.71,North,0,0.0,0.0,57,0.00,,,0.00,WUHU216HW,2014-08-27 19:25:00,
2014-08-27 12:30:00,78.8,61.3,29.71,North,0,0.0,0.0,55,0.00,,,0.00,WUHU216HW,2014-08-27 19:30:00,
2014-08-27 12:35:00,79.6,60.9,29.71,North,0,0.0,0.0,53,0.00,,,0.00,WUHU216HW,2014-08-27 19:35:00,
2014-08-27 12:40:00,80.1,61.4,29.71,North,0,0.0,0.0,53,0.00,,,0.00,WUHU216HW,2014-08-27 19:40:00,
2014-08-27 12:45:00,80.5,61.2,29.71,North,0,0.0,0.0,52,0.00,,,0.00,WUHU216HW,2014-08-27 19:45:00,
2014-08-27 12:50:00,81.0,60.7,29.71,North,0,0.0,0.0,50,0.00,,,0.00,WUHU216HW,2014-08-27 19:50:00,
2014-08-27 12:55:00,81.4,60.9,29.71,North,0,0.0,0.0,50,0.00,,,0.00,WUHU216HW,2014-08-27 19:55:00,
2014-08-27 13:00:00,81.5,60.5,29.71,North,0,0.0,0.0,49,0.00,,,0.00,WUHU216HW,2014-08-27 20:00:00,
2014-08-27 13:05:00,81.7,60.0,29.71,North,0,0.0,0.0,48,0.00,,,0.00,WUHU216HW,2014-08-27 20:05:00,
2014-08-27 13:10:00,81.7,60.0,29.71,North,0,0.0,0.0,48,0.00,,,0.00,WUHU216HW,2014-08-27 20:10:00,
2014-08-27 13:15:00,81.5,59.9,29.71,North,0,0.0,0.0,48,0.00,,,0.00,WUHU216HW,2014-08-27 20:15:00,
2014-08-27 13:20:00,81.7,59.4,29.71,North,0,0.0,0.0,47,0.00,,,0.00,WUHU216HW,2014-08-27 20:20:00,
2014-08-27 13:25:00,81.7,59.4,29.71,North,0,0.0,0.0,47,0.00,,,0.00,WUHU216HW,2014-08-27 20:25:00,
2014-08-27 13:30:00,82.1,59.1,29.71,North,0,0.0,0.0,46,0.00,,,0.00,WUHU216HW,2014-08-27 20:30:00,
2014-08-27 13:35:00,82.1,58.5,29.71,North,0,0.0,0.0,45,0.00,,,0.00,WUHU216HW,2014-08-27 20:35:00,
2014-08-27 13:40:00,82.1,58.5,29.70,North,0,0.0,0.0,45,0.00,,,0.00,WUHU216HW,2014-08-27 20:40:00,
2014-08-27 13:45:00,82.8,59.2,29.70,North,0,0.0,0.0,45,0.00,,,0.00,WUHU216HW,2014-08-27 20:45:00,
2014-08-27 13:50:00,83.5,59.2,29.70,North,0,0.0,0.0,44,0.00,,,0.00,WUHU216HW,2014-08-27 20:50:00,
2014-08-27 13:55:00,84.1,59.1,29.70,North,0,0.0,0.0,43,0.00,,,0.00,WUHU216HW,2014-08-27 20:55:00,
2014-08-27 14:00:00,84.1,59.1,29.70,North,0,0.0,0.0,43,0.00,,,0.00,WUHU216HW,2014-08-27 21:00:00,
2014-08-27 14:05:00,83.9,59.0,29.70,North,0,0.0,0.0,43,0.00,,,0.00,WUHU216HW,2014-08-27 21:05:00,
2014-08-27 14:10:00,83.5,59.2,29.70,North,0,0.0,0.0,44,0.00,,,0.00,WUHU216HW,2014-08-27 21:10:00,
2014-08-27 14:15:00,83.9,58.3,29.70,North,0,0.0,0.0,42,0.00,,,0.00,WUHU216HW,2014-08-27 21:15:00,
2014-08-27 14:20:00,84.1,59.1,29.70,North,0,0.0,0.0,43,0.00,,,0.00,WUHU216HW,2014-08-27 21:20:00,
2014-08-27 14:25:00,84.6,59.7,29.70,North,0,0.0,0.0,43,0.00,,,0.00,WUHU216HW,2014-08-27 21:25:00,
2014-08-27 14:30:00,85.5,60.5,29.70,North,0,0.0,0.0,43,0.00,,,0.00,WUHU216HW,2014-08-27 21:30:00,
2014-08-27 14:35:00,85.5,58.6,29.69,North,0,0.0,0.0,40,0.00,,,0.00,WUHU216HW,2014-08-27 21:35:00,
2014-08-27 14:40:00,85.5,58.6,29.70,North,0,0.0,0.0,40,0.00,,,0.00,WUHU216HW,2014-08-27 21:40:00,
2014-08-27 14:45:00,85.3,59.1,29.69,North,0,0.0,0.0,41,0.00,,,0.00,WUHU216HW,2014-08-27 21:45:00,
2014-08-27 14:50:00,85.7,59.3,29.69,North,0,0.0,0.0,41,0.00,,,0.00,WUHU216HW,2014-08-27 21:50:00,
2014-08-27 14:55:00,85.9,58.1,29.69,North,0,0.0,0.0,39,0.00,,,0.00,WUHU216HW,2014-08-27 21:55:00,
2014-08-27 15:00:00,86.6,58.8,29.69,North,0,0.0,0.0,39,0.00,,,0.00,WUHU216HW,2014-08-27 22:00:00,
2014-08-27 15:05:00,87.3,60.9,29.69,North,0,0.0,0.0,41,0.00,,,0.00,WUHU216HW,2014-08-27 22:05:00,
2014-08-27 15:10:00,87.3,60.2,29.69,North,0,0.0,0.0,40,0.00,,,0.00,WUHU216HW,2014-08-27 22:10:00,
2014-08-27 15:15:00,87.5,60.9,29.68,North,0,0.0,0.0,41,0.00,,,0.00,WUHU216HW,2014-08-27 22:15:00,
2014-08-27 15:20:00,88.0,60.9,29.69,North,0,0.0,0.0,40,0.00,,,0.00,WUHU216HW,2014-08-27 22:20:00,
2014-08-27 15:25:00,88.4,61.1,29.68,North,0,0.0,0.0,40,0.00,,,0.00,WUHU216HW,2014-08-27 22:25:00,
2014-08-27 15:30:00,88.4,60.3,29.68,North,0,0.0,0.0,39,0.00,,,0.00,WUHU216HW,2014-08-27 22:30:00,
2014-08-27 15:35:00,88.2,60.9,29.68,North,0,0.0,0.0,40,0.00,,,0.00,WUHU216HW,2014-08-27 22:35:00,
2014-08-27 15:40:00,88.0,60.9,29.68,North,0,0.0,0.0,40,0.00,,,0.00,WUHU216HW,2014-08-27 22:40:00,
2014-08-27 15:45:00,88.0,60.9,29.68,North,0,0.0,0.0,40,0.00,,,0.00,WUHU216HW,2014-08-27 22:45:00,
2014-08-27 15:50:00,88.9,60.8,29.68,North,0,0.0,0.0,39,0.00,,,0.00,WUHU216HW,2014-08-27 22:50:00,
2014-08-27 15:55:00,89.5,61.2,29.68,North,0,0.0,0.0,39,0.00,,,0.00,WUHU216HW,2014-08-27 22:55:00,
2014-08-27 16:00:00,89.3,61.0,29.68,North,0,0.0,0.0,39,0.00,,,0.00,WUHU216HW,2014-08-27 23:00:00,
2014-08-27 16:05:00,88.9,60.8,29.67,North,0,0.0,0.0,39,0.00,,,0.00,WUHU216HW,2014-08-27 23:05:00,
2014-08-27 16:10:00,88.9,60.8,29.68,North,0,0.0,0.0,39,0.00,,,0.00,WUHU216HW,2014-08-27 23:10:00,
2014-08-27 16:15:00,88.9,61.6,29.68,North,0,0.0,0.0,40,0.00,,,0.00,WUHU216HW,2014-08-27 23:15:00,
2014-08-27 16:20:00,89.6,61.3,29.68,North,0,0.0,0.0,39,0.00,,,0.00,WUHU216HW,2014-08-27 23:20:00,
2014-08-27 16:25:00,90.4,61.9,29.67,North,0,0.0,0.0,39,0.00,,,0.00,WUHU216HW,2014-08-27 23:25:00,
2014-08-27 16:30:00,91.4,62.1,29.67,North,0,0.0,0.0,38,0.00,,,0.00,WUHU216HW,2014-08-27 23:30:00,
2014-08-27 16:35:00,92.3,63.7,29.67,North,0,0.0,0.0,39,0.00,,,0.00,WUHU216HW,2014-08-27 23:35:00,
2014-08-27 16:40:00,94.9,62.7,29.67,North,0,0.0,0.0,35,0.00,,,0.00,WUHU216HW,2014-08-27 23:40:00,
2014-08-27 16:45:00,95.8,62.7,29.67,North,0,0.0,0.0,34,0.00,,,0.00,WUHU216HW,2014-08-27 23:45:00,
2014-08-27 16:50:00,95.6,63.4,29.67,North,0,0.0,0.0,35,0.00,,,0.00,WUHU216HW,2014-08-27 23:50:00,
2014-08-27 16:55:00,96.7,63.5,29.67,North,0,0.0,0.0,34,0.00,,,0.00,WUHU216HW,2014-08-27 23:55:00,
2014-08-27 17:00:00,97.4,64.1,29.67,North,0,0.0,0.0,34,0.00,,,0.00,WUHU216HW,2014-08-28 00:00:00,
2014-08-27 17:05:00,97.6,63.5,29.67,North,0,0.0,0.0,33,0.00,,,0.00,WUHU216HW,2014-08-28 00:05:00,
2014-08-27 17:10:00,97.2,63.9,29.67,North,0,0.0,0.0,34,0.00,,,0.00,WUHU216HW,2014-08-28 00:10:00,
2014-08-27 17:15:00,97.4,64.1,29.67,North,0,0.0,0.0,34,0.00,,,0.00,WUHU216HW,2014-08-28 00:15:00,
2014-08-27 17:20:00,98.3,64.1,29.67,North,0,0.0,0.0,33,0.00,,,0.00,WUHU216HW,2014-08-28 00:20:00,
2014-08-27 17:25:00,98.3,64.1,29.68,North,0,0.0,0.0,33,0.00,,,0.00,WUHU216HW,2014-08-28 00:25:00,
2014-08-27 17:30:00,98.3,64.1,29.67,North,0,0.0,0.0,33,0.00,,,0.00,WUHU216HW,2014-08-28 00:30:00,
2014-08-27 17:35:00,99.7,65.3,29.67,North,0,0.0,0.0,33,0.00,,,0.00,WUHU216HW,2014-08-28 00:35:00,
2014-08-27 17:40:00,99.5,64.4,29.68,North,0,0.0,0.0,32,0.00,,,0.00,WUHU216HW,2014-08-28 00:40:00,
2014-08-27 17:45:00,99.5,64.4,29.67,North,0,0.0,0.0,32,0.00,,,0.00,WUHU216HW,2014-08-28 00:45:00,
2014-08-27 17:50:00,99.4,64.3,29.67,North,0,0.0,0.0,32,0.00,,,0.00,WUHU216HW,2014-08-28 00:50:00,
2014-08-27 17:55:00,100.4,64.4,29.67,North,0,0.0,0.0,31,0.00,,,0.00,WUHU216HW,2014-08-28 00:55:00,
2014-08-27 18:00:00,99.4,64.3,29.67,North,0,0.0,0.0,32,0.00,,,0.00,WUHU216HW,2014-08-28 01:00:00,
2014-08-27 18:05:00,98.5,64.3,29.67,North,0,0.0,0.0,33,0.00,,,0.00,WUHU216HW,2014-08-28 01:05:00,
2014-08-27 18:10:00,98.5,63.5,29.67,North,0,0.0,0.0,32,0.00,,,0.00,WUHU216HW,2014-08-28 01:10:00,
2014-08-27 18:15:00,98.8,64.5,29.67,North,0,0.0,0.0,33,0.00,,,0.00,WUHU216HW,2014-08-28 01:15:00,
2014-08-27 18:20:00,98.6,64.5,29.67,North,0,0.0,0.0,33,0.00,,,0.00,WUHU216HW,2014-08-28 01:20:00,
2014-08-27 18:25:00,99.0,64.7,29.67,North,0,0.0,0.0,33,0.00,,,0.00,WUHU216HW,2014-08-28 01:25:00,
2014-08-27 18:30:00,98.3,64.1,29.67,North,0,0.0,0.0,33,0.00,,,0.00,WUHU216HW,2014-08-28 01:30:00,
2014-08-27 18:35:00,97.6,63.5,29.67,North,0,0.0,0.0,33,0.00,,,0.00,WUHU216HW,2014-08-28 01:35:00,
2014-08-27 18:40:00,96.5,63.3,29.67,North,0,0.0,0.0,34,0.00,,,0.00,WUHU216HW,2014-08-28 01:40:00,
2014-08-27 18:45:00,96.3,63.2,29.68,North,0,0.0,0.0,34,0.00,,,0.00,WUHU216HW,2014-08-28 01:45:00,
2014-08-27 18:50:00,95.4,62.4,29.68,North,0,0.0,0.0,34,0.00,,,0.00,WUHU216HW,2014-08-28 01:50:00,
2014-08-27 18:55:00,94.3,62.3,29.68,North,0,0.0,0.0,35,0.00,,,0.00,WUHU216HW,2014-08-28 01:55:00,
2014-08-27 19:00:00,93.8,62.6,29.68,North,0,0.0,0.0,36,0.00,,,0.00,WUHU216HW,2014-08-28 02:00:00,
2014-08-27 19:05:00,93.2,61.3,29.67,North,0,0.0,0.0,35,0.00,,,0.00,WUHU216HW,2014-08-28 02:05:00,
2014-08-27 19:10:00,92.2,62.0,29.68,North,0,0.0,0.0,37,0.00,,,0.00,WUHU216HW,2014-08-28 02:10:00,
2014-08-27 19:15:00,91.1,61.8,29.67,North,0,0.0,0.0,38,0.00,,,0.00,WUHU216HW,2014-08-28 02:15:00,
2014-08-27 19:20:00,89.1,60.8,29.68,North,0,0.0,0.0,39,0.00,,,0.00,WUHU216HW,2014-08-28 02:20:00,
2014-08-27 19:25:00,86.9,59.9,29.68,North,0,0.0,0.0,40,0.00,,,0.00,WUHU216HW,2014-08-28 02:25:00,
2014-08-27 19:30:00,85.7,58.7,29.68,North,0,0.0,0.0,40,0.00,,,0.00,WUHU216HW,2014-08-28 02:30:00,
2014-08-27 19:35:00,83.9,58.3,29.68,North,0,0.0,0.0,42,0.00,,,0.00,WUHU216HW,2014-08-28 02:35:00,
2014-08-27 19:40:00,82.3,58.1,29.68,North,0,0.0,0.0,44,0.00,,,0.00,WUHU216HW,2014-08-28 02:40:00,
2014-08-27 19:45:00,80.8,57.4,29.68,North,0,0.0,0.0,45,0.00,,,0.00,WUHU216HW,2014-08-28 02:45:00,
2014-08-27 19:50:00,79.9,57.8,29.68,North,0,0.0,0.0,47,0.00,,,0.00,WUHU216HW,2014-08-28 02:50:00,
2014-08-27 19:55:00,78.5,57.2,29.68,North,0,0.0,0.0,48,0.00,,,0.00,WUHU216HW,2014-08-28 02:55:00,
2014-08-27 20:00:00,77.6,57.0,29.68,North,0,0.0,0.0,49,0.00,,,0.00,WUHU216HW,2014-08-28 03:00:00,
2014-08-27 20:05:00,76.9,56.3,29.69,North,0,0.0,0.0,49,0.00,,,0.00,WUHU216HW,2014-08-28 03:05:00,
2014-08-27 20:10:00,76.3,55.8,29.68,North,0,0.0,0.0,49,0.00,,,0.00,WUHU216HW,2014-08-28 03:10:00,
2014-08-27 20:15:00,75.6,55.8,29.69,North,0,0.0,0.0,50,0.00,,,0.00,WUHU216HW,2014-08-28 03:15:00,
2014-08-27 20:20:00,75.1,55.3,29.69,North,0,0.0,0.0,50,0.00,,,0.00,WUHU216HW,2014-08-28 03:20:00,
2014-08-27 20:25:00,74.3,55.5,29.69,North,0,0.0,0.0,52,0.00,,,0.00,WUHU216HW,2014-08-28 03:25:00,
2014-08-27 20:30:00,73.6,54.8,29.69,North,0,0.0,0.0,52,0.00,,,0.00,WUHU216HW,2014-08-28 03:30:00,
2014-08-27 20:35:00,72.9,54.6,29.69,North,0,0.0,0.0,53,0.00,,,0.00,WUHU216HW,2014-08-28 03:35:00,
2014-08-27 20:40:00,72.4,54.2,29.69,North,0,0.0,0.0,53,0.00,,,0.00,WUHU216HW,2014-08-28 03:40:00,
2014-08-27 20:45:00,72.0,53.8,29.70,North,0,0.0,0.0,53,0.00,,,0.00,WUHU216HW,2014-08-28 03:45:00,
2014-08-27 20:50:00,71.6,53.6,29.70,North,0,0.0,0.0,53,0.00,,,0.00,WUHU216HW,2014-08-28 03:50:00,
2014-08-27 20:55:00,71.5,53.4,29.70,North,0,0.0,0.0,53,0.00,,,0.00,WUHU216HW,2014-08-28 03:55:00,
2014-08-27 21:00:00,71.1,53.0,29.70,North,0,0.0,0.0,53,0.00,,,0.00,WUHU216HW,2014-08-28 04:00:00,
2014-08-27 21:01:00,71.1,53.0,29.70,North,0,0.0,0.0,53,0.00,,,0.00,WUHU216HW,2014-08-28 04:01:00,
2014-08-27 21:02:00,70.9,53.4,29.70,North,0,0.0,0.0,54,0.00,,,0.00,WUHU216HW,2014-08-28 04:02:00,
2014-08-27 21:07:00,70.6,53.6,29.70,North,0,0.0,0.0,55,0.00,,,0.00,WUHU216HW,2014-08-28 04:07:00,
2014-08-27 21:12:00,69.8,52.4,29.71,North,0,0.0,0.0,54,0.00,,,0.00,WUHU216HW,2014-08-28 04:12:00,
2014-08-27 21:17:00,69.5,52.6,29.71,North,0,0.0,0.0,55,0.00,,,0.00,WUHU216HW,2014-08-28 04:17:00,
2014-08-27 21:22:00,68.9,52.6,29.71,North,0,0.0,0.0,56,0.00,,,0.00,WUHU216HW,2014-08-28 04:22:00,
2014-08-27 21:27:00,68.6,52.8,29.71,North,0,0.0,0.0,57,0.00,,,0.00,WUHU216HW,2014-08-28 04:27:00,
2014-08-27 21:32:00,68.4,53.0,29.70,North,0,0.0,0.0,58,0.00,,,0.00,WUHU216HW,2014-08-28 04:32:00,